Weather in Nikolaevka

Ukraine / Mykolaiv District     47°44′59″N   32°50′46″E
temp.,
°C
wind,
m/s
gust,
m/s
humid.,
%
clouds,
%
prec.,
mm/h
press.,
hPa
HPBL,
m
19 january, wed
wed1923:00−4nnw8137899 0.1 10191126
02:00−5nnw81383100 0.1 1021995
05:00−6nnw71384100 0.1 1022824
08:00−6nnw71383100 0.1 1024710
11:00−4nnw797193 0.0 1025754
14:00−3nnw686067 0.0 1024767
17:00−5nw377490 0.0 1024176
20:00−6wnw23855 0.0 102362
20 january, thu
thu2023:00−7sw22925 0.0 102327
02:00−6sw34895 0.0 102262
05:00−6ssw36915 0.0 1020105
08:00−6ssw499210 0.0 1019175
11:000ssw5117593 0.0 1017513
14:00+3ssw6116982 0.0 1013857
17:00−1s410855 0.0 1012175
20:00−2ssw379233 0.0 1011120
21 january, fri
fri2123:00−2wsw2483100 0.0 101160
02:00−3sw3480100 0.0 101049
05:00−3sw3776100 0.0 1009114
08:00−3wnw61280100 0.0 1011400
11:00−1wnw71167100 0.0 1013820
14:000w695393 0.0 10131203
17:00−2wsw496093 0.0 1013223
20:00−3wsw511580 0.0 1014274
22 january, sat
sat2223:00−4wsw511655 0.0 1014292
02:00−5wsw511725 0.0 1014298
05:00−5wsw410785 0.0 1013259
08:00−6wsw49825 0.0 1014232
11:00−2wsw5767100 0.0 1015606
14:00−1wsw5759100 0.0 10151125
17:00−3sw357016 0.0 101675
20:00−4sw33735 0.0 101847
23 january, sun
sun2323:00−5sw237254 0.0 101927
02:00−5wsw227497 0.0 102021
05:00−5wsw1177100 0.0 102010
08:00−5ne1179100 0.0 102110
11:00−2ene3364100 0.0 1022322
14:00−1ne4555100 0.0 1021706
17:00−3nne51074100 0.0 1022374
20:00−3ne71379100 0.0 1022634